Time,TemperatureF,DewpointF,PressureIn,WindDirection,WindDirectionDegrees,WindSpeedMPH,WindSpeedGustMPH,Humidity,HourlyPrecipIn,Conditions,Clouds,dailyrainin,SoftwareType,DateUTC
2013-01-16 00:02:00,21.1,15.0,30.26,NNW,340,0.0,0.0,77,0.00,,,0.00,LWC2 V0.39 B123,2013-01-16 07:02:00,
2013-01-16 00:07:00,20.9,14.8,30.26,NNW,340,0.0,0.0,77,0.00,,,0.00,LWC2 V0.39 B123,2013-01-16 07:07:00,
2013-01-16 00:12:00,20.9,14.5,30.26,NNW,340,0.0,0.0,76,0.00,,,0.00,LWC2 V0.39 B123,2013-01-16 07:12:00,
2013-01-16 00:17:00,21.1,14.7,30.25,NNW,340,0.0,0.0,76,0.00,,,0.00,LWC2 V0.39 B123,2013-01-16 07:17:00,
2013-01-16 00:22:00,21.1,14.7,30.26,NNW,340,0.0,0.0,76,0.00,,,0.00,LWC2 V0.39 B123,2013-01-16 07:22:00,
2013-01-16 00:27:00,21.0,14.6,30.25,NNW,340,0.0,0.0,76,0.00,,,0.00,LWC2 V0.39 B123,2013-01-16 07:27:00,
2013-01-16 00:32:00,21.3,14.9,30.25,NNW,340,0.0,0.0,76,0.00,,,0.00,LWC2 V0.39 B123,2013-01-16 07:32:00,
2013-01-16 00:37:00,21.7,15.0,30.25,NNW,340,0.0,1.0,75,0.00,,,0.00,LWC2 V0.39 B123,2013-01-16 07:37:00,
2013-01-16 00:42:00,21.9,14.9,30.25,NNW,340,0.0,0.0,74,0.00,,,0.00,LWC2 V0.39 B123,2013-01-16 07:42:00,
2013-01-16 00:47:00,21.6,14.3,30.26,NNW,340,0.0,0.0,73,0.00,,,0.00,LWC2 V0.39 B123,2013-01-16 07:47:00,
2013-01-16 00:52:00,21.6,14.6,30.25,NNW,340,0.0,1.0,74,0.00,,,0.00,LWC2 V0.39 B123,2013-01-16 07:52:00,
2013-01-16 00:57:00,21.5,14.5,30.25,NNW,340,0.0,0.0,74,0.00,,,0.00,LWC2 V0.39 B123,2013-01-16 07:57:00,
2013-01-16 01:02:00,20.9,13.6,30.25,NNW,340,0.0,0.0,73,0.00,,,0.00,LWC2 V0.39 B123,2013-01-16 08:02:00,
2013-01-16 01:07:00,20.8,14.5,30.25,NNW,340,0.0,0.0,76,0.00,,,0.00,LWC2 V0.39 B123,2013-01-16 08:07:00,
2013-01-16 01:12:00,21.3,15.2,30.25,NNW,340,0.0,0.0,77,0.00,,,0.00,LWC2 V0.39 B123,2013-01-16 08:12:00,
2013-01-16 01:17:00,21.8,15.1,30.25,NNW,340,0.0,0.0,75,0.00,,,0.00,LWC2 V0.39 B123,2013-01-16 08:17:00,
2013-01-16 01:22:00,21.8,15.1,30.25,NNW,340,0.0,0.0,75,0.00,,,0.00,LWC2 V0.39 B123,2013-01-16 08:22:00,
2013-01-16 01:27:00,21.8,15.4,30.25,NNW,340,0.0,0.0,76,0.00,,,0.00,LWC2 V0.39 B123,2013-01-16 08:27:00,
2013-01-16 01:32:00,21.5,14.8,30.25,NNW,340,0.0,0.0,75,0.00,,,0.00,LWC2 V0.39 B123,2013-01-16 08:32:00,
2013-01-16 01:37:00,21.5,16.0,30.25,NNW,340,0.0,0.0,79,0.00,,,0.00,LWC2 V0.39 B123,2013-01-16 08:37:00,
2013-01-16 01:42:00,21.9,16.7,30.25,NNW,340,0.0,0.0,80,0.00,,,0.00,LWC2 V0.39 B123,2013-01-16 08:42:00,
2013-01-16 01:47:00,21.9,15.8,30.25,NNW,340,0.0,0.0,77,0.00,,,0.00,LWC2 V0.39 B123,2013-01-16 08:47:00,
2013-01-16 01:52:00,21.7,15.3,30.25,NNW,340,0.0,1.0,76,0.00,,,0.00,LWC2 V0.39 B123,2013-01-16 08:52:00,
2013-01-16 01:57:00,21.5,14.8,30.24,NNW,340,0.0,0.0,75,0.00,,,0.00,LWC2 V0.39 B123,2013-01-16 08:57:00,
2013-01-16 02:02:00,21.2,14.8,30.24,NNW,340,0.0,0.0,76,0.00,,,0.00,LWC2 V0.39 B123,2013-01-16 09:02:00,
2013-01-16 02:07:00,21.1,15.0,30.24,NNW,340,0.0,0.0,77,0.00,,,0.00,LWC2 V0.39 B123,2013-01-16 09:07:00,
2013-01-16 02:12:00,20.9,15.1,30.24,NNW,340,0.0,0.0,78,0.00,,,0.00,LWC2 V0.39 B123,2013-01-16 09:12:00,
2013-01-16 02:17:00,20.9,15.7,30.24,NNW,340,0.0,0.0,80,0.00,,,0.00,LWC2 V0.39 B123,2013-01-16 09:17:00,
2013-01-16 02:22:00,20.9,16.3,30.24,NNW,340,0.0,1.0,82,0.00,,,0.00,LWC2 V0.39 B123,2013-01-16 09:22:00,
2013-01-16 02:27:00,20.8,16.2,30.23,NNW,340,0.0,0.0,82,0.00,,,0.00,LWC2 V0.39 B123,2013-01-16 09:27:00,
2013-01-16 02:32:00,20.8,16.5,30.23,NNW,340,0.0,1.0,83,0.00,,,0.00,LWC2 V0.39 B123,2013-01-16 09:32:00,
2013-01-16 02:37:00,20.6,16.3,30.23,NNW,340,0.0,0.0,83,0.00,,,0.00,LWC2 V0.39 B123,2013-01-16 09:37:00,
2013-01-16 02:42:00,20.8,17.0,30.23,NNW,340,0.0,1.0,85,0.00,,,0.00,LWC2 V0.39 B123,2013-01-16 09:42:00,
2013-01-16 02:47:00,20.5,16.2,30.23,NNW,340,0.0,0.0,83,0.00,,,0.00,LWC2 V0.39 B123,2013-01-16 09:47:00,
2013-01-16 02:52:00,20.4,16.6,30.23,NNW,340,0.0,1.0,85,0.00,,,0.00,LWC2 V0.39 B123,2013-01-16 09:52:00,
2013-01-16 02:57:00,20.5,17.0,30.22,NNW,333,0.0,1.0,86,0.00,,,0.00,LWC2 V0.39 B123,2013-01-16 09:57:00,
2013-01-16 03:02:00,20.5,17.3,30.22,NNW,333,0.0,1.0,87,0.00,,,0.00,LWC2 V0.39 B123,2013-01-16 10:02:00,
2013-01-16 03:07:00,20.3,17.1,30.22,NNW,333,1.0,1.0,87,0.00,,,0.00,LWC2 V0.39 B123,2013-01-16 10:07:00,
2013-01-16 03:12:00,20.2,17.0,30.22,NNW,333,0.0,1.0,87,0.00,,,0.00,LWC2 V0.39 B123,2013-01-16 10:12:00,
2013-01-16 03:17:00,20.0,16.5,30.22,NNW,333,0.0,0.0,86,0.00,,,0.00,LWC2 V0.39 B123,2013-01-16 10:17:00,
2013-01-16 03:22:00,19.8,16.0,30.22,NNW,334,0.0,0.0,85,0.00,,,0.00,LWC2 V0.39 B123,2013-01-16 10:22:00,
2013-01-16 03:27:00,19.6,15.6,30.22,NNW,334,0.0,1.0,84,0.00,,,0.00,LWC2 V0.39 B123,2013-01-16 10:27:00,
2013-01-16 03:32:00,19.6,15.6,30.22,NNW,334,1.0,1.0,84,0.00,,,0.00,LWC2 V0.39 B123,2013-01-16 10:32:00,
2013-01-16 03:37:00,19.7,15.7,30.22,NNW,334,0.0,1.0,84,0.00,,,0.00,LWC2 V0.39 B123,2013-01-16 10:37:00,
2013-01-16 03:42:00,19.8,15.5,30.22,NNW,335,1.0,1.0,83,0.00,,,0.00,LWC2 V0.39 B123,2013-01-16 10:42:00,
2013-01-16 03:47:00,19.5,15.2,30.22,NNW,333,2.0,2.0,83,0.00,,,0.00,LWC2 V0.39 B123,2013-01-16 10:47:00,
2013-01-16 03:52:00,18.9,14.6,30.22,NNW,334,0.0,1.0,83,0.00,,,0.00,LWC2 V0.39 B123,2013-01-16 10:52:00,
2013-01-16 03:57:00,18.8,14.8,30.22,NNW,335,0.0,1.0,84,0.00,,,0.00,LWC2 V0.39 B123,2013-01-16 10:57:00,
2013-01-16 04:02:00,18.9,14.9,30.22,NNW,335,0.0,0.0,84,0.00,,,0.00,LWC2 V0.39 B123,2013-01-16 11:02:00,
2013-01-16 04:07:00,18.9,14.9,30.22,NNW,335,0.0,0.0,84,0.00,,,0.00,LWC2 V0.39 B123,2013-01-16 11:07:00,
2013-01-16 04:12:00,19.0,14.7,30.22,NNW,335,0.0,0.0,83,0.00,,,0.00,LWC2 V0.39 B123,2013-01-16 11:12:00,
2013-01-16 04:17:00,18.8,14.8,30.22,NNW,335,0.0,1.0,84,0.00,,,0.00,LWC2 V0.39 B123,2013-01-16 11:17:00,
2013-01-16 04:22:00,18.8,15.1,30.22,NNW,336,0.0,1.0,85,0.00,,,0.00,LWC2 V0.39 B123,2013-01-16 11:22:00,
2013-01-16 04:27:00,18.8,14.8,30.23,NNW,336,1.0,1.0,84,0.00,,,0.00,LWC2 V0.39 B123,2013-01-16 11:27:00,
2013-01-16 04:32:00,19.0,15.2,30.22,NNW,336,0.0,0.0,85,0.00,,,0.00,LWC2 V0.39 B123,2013-01-16 11:32:00,
2013-01-16 04:37:00,18.9,14.9,30.22,NNW,334,0.0,1.0,84,0.00,,,0.00,LWC2 V0.39 B123,2013-01-16 11:37:00,
2013-01-16 04:42:00,18.9,14.9,30.22,NNW,334,0.0,0.0,84,0.00,,,0.00,LWC2 V0.39 B123,2013-01-16 11:42:00,
2013-01-16 04:47:00,18.9,15.2,30.22,NNW,334,0.0,1.0,85,0.00,,,0.00,LWC2 V0.39 B123,2013-01-16 11:47:00,
2013-01-16 04:52:00,18.8,14.8,30.22,NNW,334,0.0,0.0,84,0.00,,,0.00,LWC2 V0.39 B123,2013-01-16 11:52:00,
2013-01-16 04:57:00,18.8,15.1,30.23,NNW,336,0.0,1.0,85,0.00,,,0.00,LWC2 V0.39 B123,2013-01-16 11:57:00,
2013-01-16 05:02:00,18.9,15.2,30.23,NNW,334,0.0,1.0,85,0.00,,,0.00,LWC2 V0.39 B123,2013-01-16 12:02:00,
2013-01-16 05:07:00,18.8,15.1,30.23,NNW,335,0.0,0.0,85,0.00,,,0.00,LWC2 V0.39 B123,2013-01-16 12:07:00,
2013-01-16 05:12:00,18.8,15.1,30.23,NNW,335,0.0,1.0,85,0.00,,,0.00,LWC2 V0.39 B123,2013-01-16 12:12:00,
2013-01-16 05:17:00,18.9,15.2,30.23,NNW,335,1.0,1.0,85,0.00,,,0.00,LWC2 V0.39 B123,2013-01-16 12:17:00,
2013-01-16 05:22:00,19.0,15.2,30.23,NNW,335,0.0,0.0,85,0.00,,,0.00,LWC2 V0.39 B123,2013-01-16 12:22:00,
2013-01-16 05:27:00,19.0,15.0,30.23,NNW,336,0.0,1.0,84,0.00,,,0.00,LWC2 V0.39 B123,2013-01-16 12:27:00,
2013-01-16 05:32:00,19.1,14.8,30.23,NNW,335,0.0,1.0,83,0.00,,,0.00,LWC2 V0.39 B123,2013-01-16 12:32:00,
2013-01-16 05:37:00,19.0,14.4,30.23,NNW,336,0.0,0.0,82,0.00,,,0.00,LWC2 V0.39 B123,2013-01-16 12:37:00,
2013-01-16 05:42:00,19.0,14.4,30.23,NNW,338,1.0,2.0,82,0.00,,,0.00,LWC2 V0.39 B123,2013-01-16 12:42:00,
2013-01-16 05:47:00,19.1,14.2,30.23,NNW,338,0.0,0.0,81,0.00,,,0.00,LWC2 V0.39 B123,2013-01-16 12:47:00,
2013-01-16 05:52:00,19.2,14.3,30.23,NNW,339,0.0,0.0,81,0.00,,,0.00,LWC2 V0.39 B123,2013-01-16 12:52:00,
2013-01-16 05:57:00,19.1,14.2,30.24,NNW,340,0.0,0.0,81,0.00,,,0.00,LWC2 V0.39 B123,2013-01-16 12:57:00,
2013-01-16 06:02:00,18.8,13.7,30.23,NNW,340,0.0,0.0,80,0.00,,,0.00,LWC2 V0.39 B123,2013-01-16 13:02:00,
2013-01-16 06:07:00,18.6,13.8,30.23,NNW,340,0.0,0.0,81,0.00,,,0.00,LWC2 V0.39 B123,2013-01-16 13:07:00,
2013-01-16 06:12:00,18.6,13.8,30.24,NNW,340,0.0,0.0,81,0.00,,,0.00,LWC2 V0.39 B123,2013-01-16 13:12:00,
2013-01-16 06:17:00,18.6,13.8,30.24,NNW,340,0.0,0.0,81,0.00,,,0.00,LWC2 V0.39 B123,2013-01-16 13:17:00,
2013-01-16 06:22:00,18.4,13.6,30.24,NNW,340,0.0,0.0,81,0.00,,,0.00,LWC2 V0.39 B123,2013-01-16 13:22:00,
2013-01-16 06:27:00,18.4,13.6,30.24,NNW,340,0.0,0.0,81,0.00,,,0.00,LWC2 V0.39 B123,2013-01-16 13:27:00,
2013-01-16 06:32:00,18.5,13.7,30.24,NNW,340,0.0,0.0,81,0.00,,,0.00,LWC2 V0.39 B123,2013-01-16 13:32:00,
2013-01-16 06:37:00,18.6,13.8,30.24,NNW,334,0.0,0.0,81,0.00,,,0.00,LWC2 V0.39 B123,2013-01-16 13:37:00,
2013-01-16 06:42:00,19.3,14.2,30.24,NNW,335,0.0,1.0,80,0.00,,,0.00,LWC2 V0.39 B123,2013-01-16 13:42:00,
2013-01-16 06:47:00,19.8,14.4,30.24,NNW,335,0.0,0.0,79,0.00,,,0.00,LWC2 V0.39 B123,2013-01-16 13:47:00,
2013-01-16 06:52:00,20.2,14.5,30.24,NNW,330,0.0,1.0,78,0.00,,,0.00,LWC2 V0.39 B123,2013-01-16 13:52:00,
2013-01-16 06:57:00,20.8,14.5,30.24,NNW,330,1.0,2.0,76,0.00,,,0.00,LWC2 V0.39 B123,2013-01-16 13:57:00,
2013-01-16 07:02:00,21.3,14.6,30.24,NNW,328,1.0,2.0,75,0.00,,,0.00,LWC2 V0.39 B123,2013-01-16 14:02:00,
2013-01-16 07:07:00,21.9,14.9,30.24,West,273,2.0,2.0,74,0.00,,,0.00,LWC2 V0.39 B123,2013-01-16 14:07:00,
2013-01-16 07:12:00,22.3,15.0,30.24,West,259,4.0,5.0,73,0.00,,,0.00,LWC2 V0.39 B123,2013-01-16 14:12:00,
2013-01-16 07:17:00,22.7,15.4,30.24,West,271,2.0,4.0,73,0.00,,,0.00,LWC2 V0.39 B123,2013-01-16 14:17:00,
2013-01-16 07:22:00,23.4,15.4,30.24,West,264,3.0,6.0,71,0.00,,,0.00,LWC2 V0.39 B123,2013-01-16 14:22:00,
2013-01-16 07:27:00,24.1,15.8,30.24,WNW,290,1.0,3.0,70,0.00,,,0.00,LWC2 V0.39 B123,2013-01-16 14:27:00,
2013-01-16 07:32:00,24.8,15.8,30.24,West,280,2.0,3.0,68,0.00,,,0.00,LWC2 V0.39 B123,2013-01-16 14:32:00,
2013-01-16 07:37:00,25.5,16.1,30.24,West,281,2.0,6.0,67,0.00,,,0.00,LWC2 V0.39 B123,2013-01-16 14:37:00,
2013-01-16 07:42:00,26.1,16.3,30.24,WNW,293,2.0,5.0,66,0.00,,,0.00,LWC2 V0.39 B123,2013-01-16 14:42:00,
2013-01-16 07:47:00,26.7,16.9,30.24,WNW,287,2.0,3.0,66,0.00,,,0.00,LWC2 V0.39 B123,2013-01-16 14:47:00,
2013-01-16 07:52:00,27.2,17.4,30.24,NW,308,2.0,2.0,66,0.00,,,0.00,LWC2 V0.39 B123,2013-01-16 14:52:00,
2013-01-16 07:57:00,27.6,17.8,30.24,WNW,282,2.0,2.0,66,0.00,,,0.00,LWC2 V0.39 B123,2013-01-16 14:57:00,
2013-01-16 08:02:00,28.1,18.2,30.24,WNW,299,1.0,2.0,66,0.00,,,0.00,LWC2 V0.39 B123,2013-01-16 15:02:00,
2013-01-16 08:07:00,28.5,17.5,30.24,WSW,240,3.0,7.0,63,0.00,,,0.00,LWC2 V0.39 B123,2013-01-16 15:07:00,
2013-01-16 08:12:00,28.8,18.2,30.25,SW,228,4.0,4.0,64,0.00,,,0.00,LWC2 V0.39 B123,2013-01-16 15:12:00,
2013-01-16 08:17:00,29.1,17.7,30.25,West,278,6.0,6.0,62,0.00,,,0.00,LWC2 V0.39 B123,2013-01-16 15:17:00,
2013-01-16 08:22:00,29.3,18.3,30.25,WNW,293,1.0,4.0,63,0.00,,,0.00,LWC2 V0.39 B123,2013-01-16 15:22:00,
2013-01-16 08:27:00,29.8,18.4,30.25,NW,309,1.0,2.0,62,0.00,,,0.00,LWC2 V0.39 B123,2013-01-16 15:27:00,
2013-01-16 08:32:00,30.1,18.7,30.25,NW,324,1.0,2.0,62,0.00,,,0.00,LWC2 V0.39 B123,2013-01-16 15:32:00,
2013-01-16 08:38:00,30.4,19.0,30.25,WNW,302,1.0,4.0,62,0.00,,,0.00,LWC2 V0.39 B123,2013-01-16 15:38:00,
2013-01-16 08:43:00,30.9,19.8,30.26,NW,309,0.0,2.0,63,0.00,,,0.00,LWC2 V0.39 B123,2013-01-16 15:43:00,
2013-01-16 08:48:00,31.4,20.3,30.26,WNW,302,1.0,1.0,63,0.00,,,0.00,LWC2 V0.39 B123,2013-01-16 15:48:00,
2013-01-16 08:53:00,32.0,20.5,30.25,NW,304,1.0,4.0,62,0.00,,,0.00,LWC2 V0.39 B123,2013-01-16 15:53:00,
2013-01-16 08:58:00,32.7,20.4,30.25,WNW,287,2.0,3.0,60,0.00,,,0.00,LWC2 V0.39 B123,2013-01-16 15:58:00,
2013-01-16 09:03:00,32.9,20.2,30.25,NW,306,1.0,5.0,59,0.00,,,0.00,LWC2 V0.39 B123,2013-01-16 16:03:00,
2013-01-16 09:08:00,33.4,20.6,30.25,NW,309,1.0,2.0,59,0.00,,,0.00,LWC2 V0.39 B123,2013-01-16 16:08:00,
2013-01-16 09:13:00,34.1,21.7,30.25,NW,307,1.0,3.0,60,0.00,,,0.00,LWC2 V0.39 B123,2013-01-16 16:13:00,
2013-01-16 09:18:00,34.6,20.5,30.25,SSW,198,1.0,3.0,56,0.00,,,0.00,LWC2 V0.39 B123,2013-01-16 16:18:00,
2013-01-16 09:23:00,35.2,20.2,30.25,SW,224,4.0,5.0,54,0.00,,,0.00,LWC2 V0.39 B123,2013-01-16 16:23:00,
2013-01-16 09:28:00,35.6,20.6,30.25,SW,232,2.0,5.0,54,0.00,,,0.00,LWC2 V0.39 B123,2013-01-16 16:28:00,
2013-01-16 09:33:00,36.0,21.0,30.25,SW,236,4.0,6.0,54,0.00,,,0.00,LWC2 V0.39 B123,2013-01-16 16:33:00,
2013-01-16 09:38:00,36.5,21.0,30.24,SW,236,3.0,7.0,53,0.00,,,0.00,LWC2 V0.39 B123,2013-01-16 16:38:00,
2013-01-16 09:43:00,36.9,20.9,30.24,West,276,2.0,3.0,52,0.00,,,0.00,LWC2 V0.39 B123,2013-01-16 16:43:00,
2013-01-16 09:48:00,37.2,20.8,30.24,SSW,210,4.0,7.0,51,0.00,,,0.00,LWC2 V0.39 B123,2013-01-16 16:48:00,
2013-01-16 09:53:00,37.4,20.5,30.24,WNW,284,2.0,6.0,50,0.00,,,0.00,LWC2 V0.39 B123,2013-01-16 16:53:00,
2013-01-16 09:58:00,37.8,20.8,30.24,WSW,255,1.0,5.0,50,0.00,,,0.00,LWC2 V0.39 B123,2013-01-16 16:58:00,
2013-01-16 10:03:00,38.1,21.6,30.24,WSW,252,5.0,10.0,51,0.00,,,0.00,LWC2 V0.39 B123,2013-01-16 17:03:00,
2013-01-16 10:08:00,38.4,21.4,30.23,West,281,2.0,8.0,50,0.00,,,0.00,LWC2 V0.39 B123,2013-01-16 17:08:00,
2013-01-16 10:13:00,38.7,21.7,30.23,West,262,3.0,7.0,50,0.00,,,0.00,LWC2 V0.39 B123,2013-01-16 17:13:00,
2013-01-16 10:18:00,39.2,22.1,30.23,WNW,293,3.0,5.0,50,0.00,,,0.00,LWC2 V0.39 B123,2013-01-16 17:18:00,
2013-01-16 10:23:00,39.5,22.4,30.22,WNW,291,1.0,6.0,50,0.00,,,0.00,LWC2 V0.39 B123,2013-01-16 17:23:00,
2013-01-16 10:28:00,40.0,21.9,30.22,WNW,288,1.0,7.0,48,0.00,,,0.00,LWC2 V0.39 B123,2013-01-16 17:28:00,
2013-01-16 10:33:00,40.3,22.2,30.22,West,259,3.0,11.0,48,0.00,,,0.00,LWC2 V0.39 B123,2013-01-16 17:33:00,
2013-01-16 10:38:00,40.5,23.3,30.21,WSW,250,4.0,6.0,50,0.00,,,0.00,LWC2 V0.39 B123,2013-01-16 17:38:00,
2013-01-16 10:43:00,41.0,22.8,30.21,West,273,2.0,5.0,48,0.00,,,0.00,LWC2 V0.39 B123,2013-01-16 17:43:00,
2013-01-16 10:48:00,41.1,23.9,30.21,WNW,287,2.0,8.0,50,0.00,,,0.00,LWC2 V0.39 B123,2013-01-16 17:48:00,
2013-01-16 10:53:00,41.7,23.0,30.20,WNW,291,5.0,8.0,47,0.00,,,0.00,LWC2 V0.39 B123,2013-01-16 17:53:00,
2013-01-16 10:58:00,41.6,22.9,30.20,South,188,1.0,4.0,47,0.00,,,0.00,LWC2 V0.39 B123,2013-01-16 17:58:00,
2013-01-16 11:03:00,42.1,23.8,30.20,WNW,297,2.0,5.0,48,0.00,,,0.00,LWC2 V0.39 B123,2013-01-16 18:03:00,
2013-01-16 11:08:00,42.2,23.4,30.19,NW,308,2.0,5.0,47,0.00,,,0.00,LWC2 V0.39 B123,2013-01-16 18:08:00,
2013-01-16 11:13:00,42.6,22.8,30.19,WSW,252,2.0,5.0,45,0.00,,,0.00,LWC2 V0.39 B123,2013-01-16 18:13:00,
2013-01-16 11:18:00,42.9,23.0,30.18,WSW,256,4.0,8.0,45,0.00,,,0.00,LWC2 V0.39 B123,2013-01-16 18:18:00,
2013-01-16 11:23:00,42.8,23.5,30.18,West,259,5.0,6.0,46,0.00,,,0.00,LWC2 V0.39 B123,2013-01-16 18:23:00,
2013-01-16 11:28:00,43.5,23.6,30.18,WSW,239,1.0,6.0,45,0.00,,,0.00,LWC2 V0.39 B123,2013-01-16 18:28:00,
2013-01-16 11:33:00,44.2,23.7,30.18,WNW,293,3.0,5.0,44,0.00,,,0.00,LWC2 V0.39 B123,2013-01-16 18:33:00,
2013-01-16 11:38:00,43.9,23.4,30.17,WNW,300,2.0,3.0,44,0.00,,,0.00,LWC2 V0.39 B123,2013-01-16 18:38:00,
2013-01-16 11:43:00,44.2,22.0,30.17,WNW,287,2.0,6.0,41,0.00,,,0.00,LWC2 V0.39 B123,2013-01-16 18:43:00,
2013-01-16 11:48:00,43.7,21.6,30.17,SW,226,1.0,8.0,41,0.00,,,0.00,LWC2 V0.39 B123,2013-01-16 18:48:00,
2013-01-16 11:53:00,43.9,21.7,30.17,SW,235,0.0,6.0,41,0.00,,,0.00,LWC2 V0.39 B123,2013-01-16 18:53:00,
2013-01-16 11:58:00,44.4,21.6,30.16,SW,231,2.0,4.0,40,0.00,,,0.00,LWC2 V0.39 B123,2013-01-16 18:58:00,
2013-01-16 12:03:00,45.0,23.3,30.16,WNW,297,4.0,5.0,42,0.00,,,0.00,LWC2 V0.39 B123,2013-01-16 19:03:00,
2013-01-16 12:08:00,44.8,22.0,30.17,WSW,257,3.0,4.0,40,0.00,,,0.00,LWC2 V0.39 B123,2013-01-16 19:08:00,
2013-01-16 12:13:00,45.2,22.3,30.17,WNW,294,2.0,6.0,40,0.00,,,0.00,LWC2 V0.39 B123,2013-01-16 19:13:00,
2013-01-16 12:18:00,45.3,21.2,30.17,SW,235,1.0,3.0,38,0.00,,,0.00,LWC2 V0.39 B123,2013-01-16 19:18:00,
2013-01-16 12:23:00,45.5,21.4,30.17,WNW,302,3.0,8.0,38,0.00,,,0.00,LWC2 V0.39 B123,2013-01-16 19:23:00,
2013-01-16 12:28:00,45.6,20.8,30.16,NW,309,5.0,7.0,37,0.00,,,0.00,LWC2 V0.39 B123,2013-01-16 19:28:00,
2013-01-16 12:33:00,45.8,21.7,30.16,WNW,284,2.0,4.0,38,0.00,,,0.00,LWC2 V0.39 B123,2013-01-16 19:33:00,
2013-01-16 12:38:00,46.1,21.3,30.16,WSW,255,4.0,10.0,37,0.00,,,0.00,LWC2 V0.39 B123,2013-01-16 19:38:00,
2013-01-16 12:43:00,46.2,21.4,30.16,WNW,302,3.0,6.0,37,0.00,,,0.00,LWC2 V0.39 B123,2013-01-16 19:43:00,
2013-01-16 12:48:00,46.4,21.6,30.15,WSW,246,4.0,5.0,37,0.00,,,0.00,LWC2 V0.39 B123,2013-01-16 19:48:00,
2013-01-16 12:53:00,46.9,20.7,30.15,NW,308,3.0,5.0,35,0.00,,,0.00,LWC2 V0.39 B123,2013-01-16 19:53:00,
2013-01-16 12:58:00,47.2,21.6,30.15,West,280,3.0,6.0,36,0.00,,,0.00,LWC2 V0.39 B123,2013-01-16 19:58:00,
2013-01-16 13:03:00,47.7,20.7,30.15,WNW,286,0.0,4.0,34,0.00,,,0.00,LWC2 V0.39 B123,2013-01-16 20:03:00,
2013-01-16 13:08:00,47.6,19.9,30.15,WSW,253,1.0,6.0,33,0.00,,,0.00,LWC2 V0.39 B123,2013-01-16 20:08:00,
2013-01-16 13:13:00,47.9,20.9,30.15,WNW,295,2.0,5.0,34,0.00,,,0.00,LWC2 V0.39 B123,2013-01-16 20:13:00,
2013-01-16 13:18:00,47.9,20.2,30.15,WNW,297,3.0,7.0,33,0.00,,,0.00,LWC2 V0.39 B123,2013-01-16 20:18:00,
2013-01-16 13:23:00,48.0,21.7,30.15,North,349,5.0,8.0,35,0.00,,,0.00,LWC2 V0.39 B123,2013-01-16 20:23:00,
2013-01-16 13:28:00,48.2,21.2,30.14,NNW,333,3.0,9.0,34,0.00,,,0.00,LWC2 V0.39 B123,2013-01-16 20:28:00,
2013-01-16 13:33:00,48.2,21.2,30.14,NW,319,3.0,8.0,34,0.00,,,0.00,LWC2 V0.39 B123,2013-01-16 20:33:00,
2013-01-16 13:38:00,48.2,21.2,30.14,WNW,290,4.0,5.0,34,0.00,,,0.00,LWC2 V0.39 B123,2013-01-16 20:38:00,
2013-01-16 13:43:00,48.5,21.4,30.14,West,277,5.0,7.0,34,0.00,,,0.00,LWC2 V0.39 B123,2013-01-16 20:43:00,
2013-01-16 13:48:00,48.4,21.3,30.14,WNW,301,2.0,3.0,34,0.00,,,0.00,LWC2 V0.39 B123,2013-01-16 20:48:00,
2013-01-16 13:53:00,48.6,20.8,30.14,NW,321,4.0,6.0,33,0.00,,,0.00,LWC2 V0.39 B123,2013-01-16 20:53:00,
2013-01-16 13:58:00,48.6,20.8,30.14,WSW,246,2.0,6.0,33,0.00,,,0.00,LWC2 V0.39 B123,2013-01-16 20:58:00,
2013-01-16 14:03:00,48.7,20.9,30.14,WNW,284,4.0,6.0,33,0.00,,,0.00,LWC2 V0.39 B123,2013-01-16 21:03:00,
2013-01-16 14:08:00,48.4,21.3,30.14,WNW,300,4.0,9.0,34,0.00,,,0.00,LWC2 V0.39 B123,2013-01-16 21:08:00,
2013-01-16 14:13:00,48.7,20.9,30.14,NNW,335,2.0,3.0,33,0.00,,,0.00,LWC2 V0.39 B123,2013-01-16 21:13:00,
2013-01-16 14:18:00,49.2,20.6,30.15,NW,314,7.0,8.0,32,0.00,,,0.00,LWC2 V0.39 B123,2013-01-16 21:18:00,
2013-01-16 14:23:00,49.8,21.9,30.14,WNW,293,5.0,5.0,33,0.00,,,0.00,LWC2 V0.39 B123,2013-01-16 21:23:00,
2013-01-16 14:28:00,49.8,21.9,30.14,WSW,248,5.0,8.0,33,0.00,,,0.00,LWC2 V0.39 B123,2013-01-16 21:28:00,
2013-01-16 14:33:00,49.4,20.8,30.15,WNW,300,3.0,5.0,32,0.00,,,0.00,LWC2 V0.39 B123,2013-01-16 21:33:00,
2013-01-16 14:38:00,49.1,20.5,30.15,WSW,245,2.0,6.0,32,0.00,,,0.00,LWC2 V0.39 B123,2013-01-16 21:38:00,
2013-01-16 14:43:00,47.7,20.7,30.15,WNW,290,2.0,4.0,34,0.00,,,0.00,LWC2 V0.39 B123,2013-01-16 21:43:00,
2013-01-16 14:48:00,47.3,21.0,30.15,West,277,1.0,7.0,35,0.00,,,0.00,LWC2 V0.39 B123,2013-01-16 21:48:00,
2013-01-16 14:53:00,47.8,20.8,30.15,WNW,291,1.0,4.0,34,0.00,,,0.00,LWC2 V0.39 B123,2013-01-16 21:53:00,
2013-01-16 14:58:00,47.9,20.2,30.15,WNW,290,1.0,5.0,33,0.00,,,0.00,LWC2 V0.39 B123,2013-01-16 21:58:00,
2013-01-16 15:03:00,48.1,20.4,30.15,WNW,293,3.0,5.0,33,0.00,,,0.00,LWC2 V0.39 B123,2013-01-16 22:03:00,
2013-01-16 15:08:00,48.1,20.4,30.15,NW,325,0.0,2.0,33,0.00,,,0.00,LWC2 V0.39 B123,2013-01-16 22:08:00,
2013-01-16 15:13:00,47.9,20.9,30.15,WNW,292,1.0,4.0,34,0.00,,,0.00,LWC2 V0.39 B123,2013-01-16 22:13:00,
2013-01-16 15:18:00,47.9,20.2,30.15,WNW,294,2.0,6.0,33,0.00,,,0.00,LWC2 V0.39 B123,2013-01-16 22:18:00,
2013-01-16 15:23:00,48.1,21.1,30.15,WNW,295,3.0,4.0,34,0.00,,,0.00,LWC2 V0.39 B123,2013-01-16 22:23:00,
2013-01-16 15:28:00,48.0,21.0,30.15,WNW,295,5.0,5.0,34,0.00,,,0.00,LWC2 V0.39 B123,2013-01-16 22:28:00,
2013-01-16 15:33:00,48.0,20.3,30.15,WNW,284,1.0,6.0,33,0.00,,,0.00,LWC2 V0.39 B123,2013-01-16 22:33:00,
2013-01-16 15:38:00,48.0,20.3,30.15,WNW,293,3.0,4.0,33,0.00,,,0.00,LWC2 V0.39 B123,2013-01-16 22:38:00,
2013-01-16 15:43:00,48.0,19.6,30.16,WNW,291,3.0,5.0,32,0.00,,,0.00,LWC2 V0.39 B123,2013-01-16 22:43:00,
2013-01-16 15:48:00,47.9,19.5,30.16,West,274,0.0,2.0,32,0.00,,,0.00,LWC2 V0.39 B123,2013-01-16 22:48:00,
2013-01-16 15:53:00,47.3,19.0,30.16,WSW,253,0.0,4.0,32,0.00,,,0.00,LWC2 V0.39 B123,2013-01-16 22:53:00,
2013-01-16 15:58:00,46.6,19.8,30.16,West,271,0.0,4.0,34,0.00,,,0.00,LWC2 V0.39 B123,2013-01-16 22:58:00,
2013-01-16 16:03:00,46.0,19.9,30.16,WNW,283,1.0,3.0,35,0.00,,,0.00,LWC2 V0.39 B123,2013-01-16 23:03:00,
2013-01-16 16:08:00,45.5,19.5,30.16,West,260,0.0,1.0,35,0.00,,,0.00,LWC2 V0.39 B123,2013-01-16 23:08:00,
2013-01-16 16:13:00,45.1,20.4,30.16,WNW,287,1.0,1.0,37,0.00,,,0.00,LWC2 V0.39 B123,2013-01-16 23:13:00,
2013-01-16 16:18:00,44.7,20.0,30.16,WNW,287,0.0,0.0,37,0.00,,,0.01,LWC2 V0.39 B123,2013-01-16 23:18:00,
2013-01-16 16:23:00,44.3,20.3,30.16,WNW,287,1.0,1.0,38,0.00,,,0.01,LWC2 V0.39 B123,2013-01-16 23:23:00,
2013-01-16 16:28:00,44.3,20.3,30.16,WNW,287,0.0,0.0,38,0.00,,,0.01,LWC2 V0.39 B123,2013-01-16 23:28:00,
2013-01-16 16:33:00,43.9,20.6,30.16,WNW,287,0.0,0.0,39,0.00,,,0.01,LWC2 V0.39 B123,2013-01-16 23:33:00,
2013-01-16 16:38:00,43.3,20.6,30.17,WNW,287,0.0,0.0,40,0.00,,,0.01,LWC2 V0.39 B123,2013-01-16 23:38:00,
2013-01-16 16:43:00,42.6,20.0,30.17,WNW,287,0.0,0.0,40,0.00,,,0.01,LWC2 V0.39 B123,2013-01-16 23:43:00,
2013-01-16 16:48:00,42.0,20.0,30.17,WNW,287,0.0,1.0,41,0.00,,,0.01,LWC2 V0.39 B123,2013-01-16 23:48:00,
2013-01-16 16:53:00,41.8,19.8,30.17,WNW,287,0.0,0.0,41,0.00,,,0.01,LWC2 V0.39 B123,2013-01-16 23:53:00,
2013-01-16 16:58:00,41.2,19.9,30.17,WNW,287,0.0,0.0,42,0.00,,,0.01,LWC2 V0.39 B123,2013-01-16 23:58:00,
2013-01-16 17:03:00,40.5,19.2,30.18,WNW,287,0.0,0.0,42,0.00,,,0.01,LWC2 V0.39 B123,2013-01-17 00:03:00,
2013-01-16 17:08:00,39.9,19.8,30.18,WNW,287,0.0,0.0,44,0.00,,,0.01,LWC2 V0.39 B123,2013-01-17 00:08:00,
2013-01-16 17:13:00,39.7,19.6,30.17,WNW,287,0.0,0.0,44,0.00,,,0.01,LWC2 V0.39 B123,2013-01-17 00:13:00,
2013-01-16 17:18:00,39.5,19.4,30.17,WNW,287,0.0,0.0,44,0.00,,,0.01,LWC2 V0.39 B123,2013-01-17 00:18:00,
2013-01-16 17:23:00,39.2,19.7,30.17,WNW,287,0.0,0.0,45,0.00,,,0.01,LWC2 V0.39 B123,2013-01-17 00:23:00,
2013-01-16 17:28:00,38.9,19.9,30.17,WNW,287,0.0,0.0,46,0.00,,,0.01,LWC2 V0.39 B123,2013-01-17 00:28:00,
2013-01-16 17:33:00,38.7,19.7,30.18,WNW,287,0.0,0.0,46,0.00,,,0.01,LWC2 V0.39 B123,2013-01-17 00:33:00,
2013-01-16 17:38:00,38.5,19.5,30.18,WNW,287,0.0,0.0,46,0.00,,,0.01,LWC2 V0.39 B123,2013-01-17 00:38:00,
2013-01-16 17:43:00,38.4,19.9,30.18,WNW,287,0.0,0.0,47,0.00,,,0.01,LWC2 V0.39 B123,2013-01-17 00:43:00,
2013-01-16 17:48:00,38.4,20.4,30.18,WNW,287,0.0,0.0,48,0.00,,,0.01,LWC2 V0.39 B123,2013-01-17 00:48:00,
2013-01-16 17:53:00,38.3,19.9,30.18,WNW,287,0.0,0.0,47,0.00,,,0.01,LWC2 V0.39 B123,2013-01-17 00:53:00,
2013-01-16 17:58:00,38.2,19.8,30.18,WNW,287,0.0,0.0,47,0.00,,,0.01,LWC2 V0.39 B123,2013-01-17 00:58:00,
2013-01-16 18:03:00,38.1,19.7,30.18,WNW,287,0.0,0.0,47,0.00,,,0.01,LWC2 V0.39 B123,2013-01-17 01:03:00,
2013-01-16 18:08:00,37.9,19.5,30.18,WNW,287,0.0,0.0,47,0.00,,,0.01,LWC2 V0.39 B123,2013-01-17 01:08:00,
2013-01-16 18:13:00,37.8,19.9,30.18,WNW,287,0.0,0.0,48,0.00,,,0.01,LWC2 V0.39 B123,2013-01-17 01:13:00,
2013-01-16 18:18:00,37.8,19.9,30.18,WNW,287,0.0,0.0,48,0.00,,,0.01,LWC2 V0.39 B123,2013-01-17 01:18:00,
2013-01-16 18:23:00,37.8,19.9,30.18,WNW,287,0.0,0.0,48,0.00,,,0.01,LWC2 V0.39 B123,2013-01-17 01:23:00,
2013-01-16 18:28:00,37.6,19.7,30.18,WNW,287,0.0,1.0,48,0.00,,,0.01,LWC2 V0.39 B123,2013-01-17 01:28:00,
2013-01-16 18:33:00,37.4,19.5,30.18,WNW,287,0.0,0.0,48,0.00,,,0.01,LWC2 V0.39 B123,2013-01-17 01:33:00,
2013-01-16 18:38:00,37.2,19.3,30.18,WNW,287,0.0,0.0,48,0.00,,,0.01,LWC2 V0.39 B123,2013-01-17 01:38:00,
2013-01-16 18:43:00,37.0,19.6,30.18,WNW,287,0.0,0.0,49,0.00,,,0.01,LWC2 V0.39 B123,2013-01-17 01:43:00,
2013-01-16 18:48:00,36.9,19.5,30.18,WNW,287,0.0,0.0,49,0.00,,,0.01,LWC2 V0.39 B123,2013-01-17 01:48:00,
2013-01-16 18:53:00,36.5,19.6,30.18,WNW,287,0.0,0.0,50,0.00,,,0.01,LWC2 V0.39 B123,2013-01-17 01:53:00,
2013-01-16 18:58:00,36.4,20.0,30.18,WNW,287,0.0,0.0,51,0.00,,,0.01,LWC2 V0.39 B123,2013-01-17 01:58:00,
2013-01-16 19:03:00,36.4,19.6,30.18,WNW,287,0.0,0.0,50,0.00,,,0.01,LWC2 V0.39 B123,2013-01-17 02:03:00,
2013-01-16 19:08:00,36.4,20.0,30.18,WNW,287,0.0,0.0,51,0.00,,,0.01,LWC2 V0.39 B123,2013-01-17 02:08:00,
2013-01-16 19:13:00,36.4,20.0,30.18,WNW,287,0.0,0.0,51,0.00,,,0.01,LWC2 V0.39 B123,2013-01-17 02:13:00,
2013-01-16 19:18:00,36.4,20.0,30.18,WNW,287,0.0,0.0,51,0.00,,,0.01,LWC2 V0.39 B123,2013-01-17 02:18:00,
2013-01-16 19:23:00,36.3,19.9,30.18,WNW,287,0.0,0.0,51,0.00,,,0.01,LWC2 V0.39 B123,2013-01-17 02:23:00,
2013-01-16 19:28:00,36.0,19.6,30.19,WNW,287,0.0,0.0,51,0.00,,,0.01,LWC2 V0.39 B123,2013-01-17 02:28:00,
2013-01-16 19:33:00,36.0,19.6,30.19,WNW,287,0.0,0.0,51,0.00,,,0.01,LWC2 V0.39 B123,2013-01-17 02:33:00,
2013-01-16 19:38:00,36.1,19.3,30.19,WNW,287,0.0,0.0,50,0.00,,,0.01,LWC2 V0.39 B123,2013-01-17 02:38:00,
2013-01-16 19:43:00,36.3,19.5,30.19,WNW,287,0.0,0.0,50,0.00,,,0.01,LWC2 V0.39 B123,2013-01-17 02:43:00,
2013-01-16 19:48:00,36.5,19.6,30.19,WSW,257,0.0,0.0,50,0.00,,,0.01,LWC2 V0.39 B123,2013-01-17 02:48:00,
2013-01-16 19:53:00,36.8,19.9,30.20,WSW,256,0.0,1.0,50,0.00,,,0.01,LWC2 V0.39 B123,2013-01-17 02:53:00,
2013-01-16 19:58:00,36.8,19.9,30.20,WSW,255,0.0,0.0,50,0.00,,,0.01,LWC2 V0.39 B123,2013-01-17 02:58:00,
2013-01-16 20:03:00,36.3,19.5,30.20,WSW,256,0.0,0.0,50,0.00,,,0.01,LWC2 V0.39 B123,2013-01-17 03:03:00,
2013-01-16 20:08:00,36.1,19.3,30.20,WSW,256,0.0,0.0,50,0.00,,,0.01,LWC2 V0.39 B123,2013-01-17 03:08:00,
2013-01-16 20:13:00,36.1,19.3,30.20,WSW,256,1.0,1.0,50,0.00,,,0.01,LWC2 V0.39 B123,2013-01-17 03:13:00,
2013-01-16 20:18:00,36.3,19.5,30.21,WSW,257,0.0,1.0,50,0.00,,,0.01,LWC2 V0.39 B123,2013-01-17 03:18:00,
2013-01-16 20:23:00,36.1,19.3,30.21,WSW,257,0.0,0.0,50,0.00,,,0.01,LWC2 V0.39 B123,2013-01-17 03:23:00,
2013-01-16 20:28:00,35.7,18.9,30.21,WSW,257,0.0,0.0,50,0.00,,,0.01,LWC2 V0.39 B123,2013-01-17 03:28:00,
2013-01-16 20:33:00,35.6,19.3,30.21,WSW,257,0.0,0.0,51,0.00,,,0.01,LWC2 V0.39 B123,2013-01-17 03:33:00,
2013-01-16 20:38:00,35.7,19.4,30.21,WSW,256,0.0,0.0,51,0.00,,,0.01,LWC2 V0.39 B123,2013-01-17 03:38:00,
2013-01-16 20:43:00,36.0,19.6,30.21,WSW,257,0.0,1.0,51,0.00,,,0.01,LWC2 V0.39 B123,2013-01-17 03:43:00,
2013-01-16 20:48:00,36.1,19.7,30.20,WSW,256,0.0,0.0,51,0.00,,,0.01,LWC2 V0.39 B123,2013-01-17 03:48:00,
2013-01-16 20:53:00,35.9,20.0,30.20,WSW,256,0.0,1.0,52,0.00,,,0.01,LWC2 V0.39 B123,2013-01-17 03:53:00,
2013-01-16 20:58:00,35.7,19.8,30.21,WSW,257,0.0,0.0,52,0.00,,,0.01,LWC2 V0.39 B123,2013-01-17 03:58:00,
2013-01-16 21:03:00,35.6,19.7,30.21,WSW,257,0.0,1.0,52,0.00,,,0.01,LWC2 V0.39 B123,2013-01-17 04:03:00,
2013-01-16 21:08:00,35.2,19.4,30.22,WSW,257,0.0,0.0,52,0.00,,,0.01,LWC2 V0.39 B123,2013-01-17 04:08:00,
2013-01-16 21:13:00,35.2,22.3,30.22,West,262,0.0,0.0,59,0.00,,,0.01,LWC2 V0.39 B123,2013-01-17 04:13:00,
2013-01-16 21:18:00,34.2,22.9,30.22,West,265,0.0,1.0,63,0.00,,,0.01,LWC2 V0.39 B123,2013-01-17 04:18:00,
2013-01-16 21:23:00,33.6,24.5,30.22,West,265,0.0,1.0,69,0.00,,,0.01,LWC2 V0.39 B123,2013-01-17 04:23:00,
2013-01-16 21:28:00,33.5,25.8,30.22,West,266,1.0,1.0,73,0.00,,,0.01,LWC2 V0.39 B123,2013-01-17 04:28:00,
2013-01-16 21:33:00,33.3,25.3,30.22,West,266,0.0,1.0,72,0.00,,,0.01,LWC2 V0.39 B123,2013-01-17 04:33:00,
2013-01-16 21:38:00,33.1,24.7,30.22,WNW,289,1.0,2.0,71,0.00,,,0.01,LWC2 V0.39 B123,2013-01-17 04:38:00,
2013-01-16 21:43:00,33.3,24.9,30.22,WNW,290,1.0,1.0,71,0.00,,,0.01,LWC2 V0.39 B123,2013-01-17 04:43:00,
2013-01-16 21:48:00,32.9,24.9,30.22,WNW,289,1.0,2.0,72,0.00,,,0.01,LWC2 V0.39 B123,2013-01-17 04:48:00,
2013-01-16 21:53:00,33.0,23.3,30.22,WNW,290,0.0,1.0,67,0.00,,,0.01,LWC2 V0.39 B123,2013-01-17 04:53:00,
2013-01-16 21:58:00,33.2,22.4,30.22,WNW,289,1.0,1.0,64,0.00,,,0.01,LWC2 V0.39 B123,2013-01-17 04:58:00,
2013-01-16 22:01:00,33.2,22.0,30.22,WNW,289,0.0,0.0,63,0.00,,,0.01,LWC2 V0.39 B123,2013-01-17 05:01:00,
2013-01-16 22:04:00,33.1,21.9,30.22,WNW,290,0.0,1.0,63,0.00,,,0.01,LWC2 V0.39 B123,2013-01-17 05:04:00,
2013-01-16 22:07:00,33.1,21.5,30.22,West,262,0.0,1.0,62,0.00,,,0.01,LWC2 V0.39 B123,2013-01-17 05:07:00,
2013-01-16 22:12:00,33.3,21.3,30.22,WNW,284,1.0,1.0,61,0.00,,,0.01,LWC2 V0.39 B123,2013-01-17 05:12:00,
2013-01-16 22:17:00,33.8,21.4,30.23,WNW,284,0.0,1.0,60,0.00,,,0.01,LWC2 V0.39 B123,2013-01-17 05:17:00,
2013-01-16 22:22:00,34.0,21.2,30.23,West,281,0.0,1.0,59,0.00,,,0.01,LWC2 V0.39 B123,2013-01-17 05:22:00,
2013-01-16 22:25:00,33.9,21.1,30.23,West,280,0.0,1.0,59,0.00,,,0.01,LWC2 V0.39 B123,2013-01-17 05:25:00,
2013-01-16 22:30:00,33.8,21.0,30.23,West,269,0.0,1.0,59,0.00,,,0.01,LWC2 V0.39 B123,2013-01-17 05:30:00,
2013-01-16 22:35:00,33.6,20.8,30.23,West,276,0.0,1.0,59,0.00,,,0.01,LWC2 V0.39 B123,2013-01-17 05:35:00,
2013-01-16 22:40:00,33.1,20.7,30.23,West,276,1.0,1.0,60,0.00,,,0.01,LWC2 V0.39 B123,2013-01-17 05:40:00,
2013-01-16 22:45:00,32.6,20.7,30.23,WNW,285,0.0,2.0,61,0.00,,,0.01,LWC2 V0.39 B123,2013-01-17 05:45:00,
2013-01-16 22:50:00,32.4,21.2,30.24,WNW,287,0.0,0.0,63,0.00,,,0.01,LWC2 V0.39 B123,2013-01-17 05:50:00,
2013-01-16 22:55:00,32.4,21.2,30.24,WNW,287,0.0,0.0,63,0.00,,,0.01,LWC2 V0.39 B123,2013-01-17 05:55:00,
2013-01-16 23:00:00,32.1,20.9,30.24,WNW,287,0.0,0.0,63,0.00,,,0.00,LWC2 V0.39 B123,2013-01-17 06:00:00,
2013-01-16 23:05:00,32.0,21.2,30.24,WNW,285,0.0,0.0,64,0.00,,,0.00,LWC2 V0.39 B123,2013-01-17 06:05:00,
2013-01-16 23:10:00,31.9,21.1,30.24,WNW,285,0.0,0.0,64,0.00,,,0.00,LWC2 V0.39 B123,2013-01-17 06:10:00,
2013-01-16 23:15:00,31.8,21.0,30.24,WNW,285,0.0,0.0,64,0.00,,,0.00,LWC2 V0.39 B123,2013-01-17 06:15:00,
2013-01-16 23:20:00,31.7,20.9,30.25,WNW,287,0.0,0.0,64,0.00,,,0.00,LWC2 V0.39 B123,2013-01-17 06:20:00,
2013-01-16 23:25:00,31.7,21.3,30.25,West,277,0.0,0.0,65,0.00,,,0.00,LWC2 V0.39 B123,2013-01-17 06:25:00,
2013-01-16 23:30:00,31.6,20.8,30.24,West,276,0.0,0.0,64,0.00,,,0.00,LWC2 V0.39 B123,2013-01-17 06:30:00,
2013-01-16 23:35:00,31.5,21.1,30.25,West,277,0.0,0.0,65,0.00,,,0.00,LWC2 V0.39 B123,2013-01-17 06:35:00,
2013-01-16 23:40:00,31.4,21.0,30.25,West,276,0.0,0.0,65,0.00,,,0.00,LWC2 V0.39 B123,2013-01-17 06:40:00,
2013-01-16 23:45:00,31.2,20.8,30.25,West,276,0.0,0.0,65,0.00,,,0.00,LWC2 V0.39 B123,2013-01-17 06:45:00,
2013-01-16 23:50:00,31.2,21.5,30.25,West,276,0.0,0.0,67,0.00,,,0.00,LWC2 V0.39 B123,2013-01-17 06:50:00,
2013-01-16 23:55:00,31.3,22.0,30.25,West,270,0.0,0.0,68,0.00,,,0.00,LWC2 V0.39 B123,2013-01-17 06:55:00,